Location: Newark
(15.4211°N, 108.6697°E)
Time: 18:29:47
(UTC+00:00)

LightSail 2 - Visible Passes

Search period start: 10 December 2019 00:00
Search period end: 20 December 2019 00:00
Orbit: 696 x 730 km, 24.0° (Epoch: 10 December)

Date Brightness Start Highest point End Pass type
(mag) Time Alt. Az. Time Alt. Az. Time Alt. Az.
10 Dec 5.2 11:13:34 10° WNW 11:18:41 61° NNE 11:21:41 24° E visible
10 Dec 7.6 12:59:18 10° W 13:00:41 18° W 13:00:41 18° W visible
11 Dec 5.3 12:01:00 10° WNW 12:06:08 65° SSW 12:06:45 59° SSE visible
12 Dec 5.1 11:02:47 10° WNW 11:08:00 88° SSW 11:12:57 11° ESE visible
12 Dec 7.2 12:49:05 10° W 12:51:58 23° SW 12:51:58 23° SW visible
13 Dec 6.4 11:50:31 10° W 11:55:18 38° SSW 11:58:16 20° SSE visible
14 Dec 5.9 10:52:07 10° W 10:57:12 54° SSW 11:02:14 10° SE visible
14 Dec 7.6 12:39:35 10° WSW 12:42:33 15° SSW 12:43:42 14° SSW visible
15 Dec 7.3 11:40:27 10° WSW 11:44:26 22° SSW 11:48:23 10° SSE visible
16 Dec 7.0 10:41:43 10° W 10:46:19 31° SSW 10:50:53 10° SE visible
17 Dec 7.9 11:31:26 10° SW 11:33:32 12° SSW 11:35:39 10° S visible
19 Dec 7.7 22:01:32 10° SSW 22:04:45 17° SSE 22:07:59 10° ESE visible
